Regional Weather Roundup
Issued by NWS

Home | Current Version | Previous Version | Text Only | Print | Product List | Glossary Off
Versions: 1 2 3 4 5 6 7 8 9 10 11 12 13 14 15 16 17 18 19 20 21 22 23 24 25 26 27 28 29 30 31 32 33 34 35 36 37 38 39 40 41 42 43 44 45 46 47 48 49 50

000
ASUS43 KMPX 301301
RWRMN
WEATHER ROUNDUP FOR MINNESOTA
NATIONAL WEATHER SERVICE TWIN CITIES/CHANHASSEN MN
800 AM CDT WED JUL 30 2014


NOTE: "FAIR" INDICATES FEW OR NO CLOUDS BELOW 12,000 FEET WITH NO
SIGNIFICANT WEATHER AND/OR OBSTRUCTIONS TO VISIBILITY. N/A MEANS
CURRENT SKY AND/OR WEATHER CONDITIONS ARE NOT AVAILABLE.

MNZ060>063-068>070-301400-
   Twin Cities Metro

CITY           SKY/WX    TMP DP  RH WIND       PRES   REMARKS
TWIN CITIES    SUNNY     65  58  78 CALM      30.09R
ST PAUL        SUNNY     63  58  83 CALM      30.09R
CRYSTAL        SUNNY     65  56  72 N5        30.08R
BLAINE         SUNNY     63  61  94 CALM      30.09R
LAKEVILLE      SUNNY     61  57  88 CALM      30.09R
EDEN PRAIRIE   SUNNY     65  58  78 NW6       30.08R
SOUTH ST PAUL  SUNNY     64  58  81 CALM      30.09R
LAKE ELMO      FAIR      61  59  94 CALM      30.09S
$$
MNZ001>005-007-008-013>017-022>024-027-028-301400-
   Northwest Minnesota

CITY           SKY/WX    TMP DP  RH WIND       PRES   REMARKS
BEMIDJI        SUNNY     59  56  89 W6        30.11S
HALLOCK        SUNNY     59  55  88 CALM      30.12S
ROSEAU         SUNNY     59  54  82 W7        30.10S
WARROAD        SUNNY     61  55  82 W7        30.09S
THIEF RVR FALL SUNNY     61  55  82 NW7       30.12S
CROOKSTON      SUNNY     61  55  82 N3        30.13S
FOSSTON        SUNNY     55  54  94 CALM      30.13S
DETROIT LAKES  SUNNY     61  55  82 NW5       30.15S
MOORHEAD       SUNNY     59  59 100 CALM      30.14S
PARK RAPIDS    SUNNY     58  56  93 W5        30.12S
$$
MNZ006-009>011-018-025>026-301400-
   North Central Minnesota

CITY           SKY/WX    TMP DP  RH WIND       PRES   REMARKS
BAUDETTE       SUNNY     62  57  83 NW6       30.08F
FLAG ISLAND    SUNNY     64  57  77 NW15      30.06S
INTL FALLS     PTSUNNY   57  56  96 W5        30.05S
WASKISH        SUNNY     64  57  77 NW7       30.09S
BIG FORK       MOSUNNY   59  55  88 NW2       30.08F
LONGVILLE      SUNNY     59  59 100 CALM      30.10R
GRAND RAPIDS   SUNNY     61  57  88 NW5       30.08F
CRANE LAKE     SUNNY     54  54 100 CALM      30.06F
ORR            PTSUNNY   54  52  94 CALM      30.04F
COOK           SUNNY     54  54 100 CALM      30.07S
$$
MNZ012-019>021-037-301400-
   Northeast Minnesota

CITY           SKY/WX    TMP DP  RH WIND       PRES   REMARKS
DULUTH         SUNNY     58  54  86 CALM      30.08S
ELY            CLOUDY    55  54  94 CALM      30.07F FOG
HIBBING        FOG       53  51  93 CALM      30.08S VSB 1/4
EVELETH        FOG       52  52 100 CALM      30.09S VSB 1/4
DULUTH HARBOR  SUNNY     57  55  94 CALM      30.09S
TWO HARBORS    SUNNY     55  52  88 CALM      30.06S
SILVER BAY     SUNNY     52  52 100 CALM      30.06S
GRAND MARAIS     N/A     50  48  93 SW3       30.04F
G MARAIS ARPRT SUNNY     55  48  76 SW3       30.06S
$$
MNZ029>031-032-039>041-046>048-054>057-064-301400-
   West Central Minnesota

CITY           SKY/WX    TMP DP  RH WIND       PRES   REMARKS
FERGUS FALLS   SUNNY     59  55  88 CALM      30.14S
WHEATON        SUNNY     57  57 100 CALM      30.16S
MORRIS         SUNNY     57  55  94 NW3       30.13S
ALEXANDRIA     SUNNY     63  56  78 NW6       30.15R
ELBOW LAKE     FAIR      59  56  89 NW5       30.14R
WADENA         SUNNY     57  55  94 W3        30.12S
GLENWOOD       SUNNY     63  59  88 CALM      30.14R
APPLETON       SUNNY     59  57  94 CALM      30.13S
BENSON         SUNNY     57  55  94 CALM      30.14R
ORTONVILLE     SUNNY     59  55  88 CALM      30.14S
MADISON        SUNNY     61  57  88 CALM      30.14S
WILLMAR        FAIR      61  55  82 NW3       30.14R
$$
MNZ033>034-036-042>043-049>051-058-059-301400-
   Central Minnesota

CITY           SKY/WX    TMP DP  RH WIND       PRES   REMARKS
ST CLOUD       SUNNY     64  57  78 N6        30.10R
SAUK CENTRE    FAIR      59  56  91 CALM      30.13R
PAYNESVILLE    SUNNY     56  55  97 CALM      30.13R
AITKIN         SUNNY     63  55  77 CALM      30.08S
PINE RIVER     SUNNY     61  55  82 CALM      30.13S
BRAINERD       SUNNY     61  57  87 CALM      30.11R
STAPLES        SUNNY     57  55  94 NW3       30.12S
LONG PRAIRIE   FAIR      61  55  82 CALM      30.13R
LITTLE FALLS   SUNNY     59  55  88 CALM      30.11S
LITCHFIELD     SUNNY     64  57  77 NW6       30.12R
BUFFALO        SUNNY     63  55  76 NW5       30.11R
MAPLE LAKE     SUNNY     64  58  82 NW5       30.11R
$$
MNZ037-044-045-052-053-301400-
   East Central Minnesota

CITY           SKY/WX    TMP DP  RH WIND       PRES   REMARKS
PRINCETON      SUNNY     61  57  88 NW3       30.10R
MORA           SUNNY     57  55  94 CALM      30.11R
CAMBRIDGE      SUNNY     61  52  72 CALM      30.08R
RUSH CITY      SUNNY     58  57  97 CALM      30.09S
MOOSE LAKE     SUNNY     55  54  94 CALM      30.07S FOG
HINCKLEY       FAIR      59  57  94 CALM      30.09S
CLOQUET        SUNNY     57  55  94 CALM      30.08F
MCGREGOR       SUNNY     57  55  94 CALM      30.09S
$$
MNZ071>073-080-081-089-090-097-098-301400-
   Southwest Minnesota

CITY           SKY/WX    TMP DP  RH WIND       PRES   REMARKS
MONTEVIDEO     SUNNY     61  57  88 N3        30.15R
GRANITE FALLS  SUNNY     56  55  94 W5        30.15S
CANBY          SUNNY     60  56  84 CALM      30.16R
MARSHALL       SUNNY     59  54  82 NW5       30.14R
REDWOOD FALLS  SUNNY     60  55  83 NW6       30.12S
OLIVIA         SUNNY     59  55  88 NW5       30.12R
PIPESTONE      SUNNY     61  54  77 N3        30.16S
WINDOM         SUNNY     59  55  88 W3        30.14S
WORTHINGTON    SUNNY     59  55  88 NW3       30.17R
JACKSON        SUNNY     59  54  82 NW6       30.15R
TRACY          SUNNY     61  55  80 W5        30.15S
SLAYTON        SUNNY     58  56  91 CALM      30.17R
$$
MNZ065>067-074>077-082>085-091>093-301400-
   South Central Minnesota

CITY           SKY/WX    TMP DP  RH WIND       PRES   REMARKS
MANKATO        SUNNY     59  54  82 NW3       30.11R
NEW ULM        SUNNY     61  57  88 NW7       30.11S
ST JAMES       SUNNY     63  55  77 W5        30.14R
FAIRMONT       SUNNY     61  52  72 NW7       30.13R
GLENCOE        SUNNY     64  56  77 W3        30.10R
FARIBAULT      SUNNY     64  55  72 CALM      30.10R
OWATONNA       SUNNY     59  55  88 CALM      30.10S
WASECA         SUNNY     55  52  88 CALM      30.12R
ALBERT LEA     SUNNY     61  55  82 CALM      30.11R
$$
MNZ078>079-086>088-094>096-301400-
   Southeast Minnesota

CITY           SKY/WX    TMP DP  RH WIND       PRES   REMARKS
ROCHESTER      SUNNY     61  57  87 NW5       30.11R
RED WING       SUNNY     61  57  88 CALM      30.08S
STANTON        SUNNY     59  56  89 CALM      30.09R
DODGE CENTER   SUNNY     63  57  82 N6        30.10R
WINONA         MOSUNNY   59  59 100 NW3       30.09R FOG
AUSTIN         SUNNY     61  55  82 NW6       30.10R
PRESTON        SUNNY     60  60 100 N7        30.09S
$$
ABBREVIATIONS USED IN REMARKS
   TC - TEMPERATURES IN CELSIUS
  WCI - WIND CHILL INDEX
   HX - HEAT INDEX
  VSB - VISIBILITY
$$



USA.gov is the U.S. government's official web portal to all federal, state and local government web resources and services.